Birmingham-Shuttlesworth International Airport

Airport
ICAO code: 
KBHM
IATA Code: 
BHM
Summary
ICAO Region: 
NAM
Territory: 
Location: 
Birmingham, Alabama,
Serving: 
Birmingham
Elevation: 
644 ft
Coordinates: 
Aerial View: 
33° 33' 43.603" N, 86° 45' 3.881" W
Metar
Observation
KBHM 192253Z 18015G20KT 10SM FEW055 SCT120 18/09 A3003 RMK AO2 SLP166 T01780094 $
Station
Birmingham, Birmingham International Airport
Date/Time
2022-01-19 22:53:00
Wind direction
180°
Wind speed
15 kts
Lowest cloud amount
few clouds
Temperature
17.8°C
Dew point
9.4°C
Humidity
57%
Weather condition
n/a

Description

Civil/Military (USAF) international airport serving the city of Birmingham and central Alabama, USA.

Climatology

Humid “subtropical” climate (Köppen climate classification Cfa) - characterized by hot, humid summers and cool winters. Significant amounts of precipitation occur in all seasons in most areas. Winter rainfall (and sometimes snowfall) is associated with large storms that the westerlies steer from west to east. Most summer rainfall occurs during thunderstorms and occasional tropical storms (hurricanes).

Runways

Designator Length Width Surface Rops
18/36 2164 46 ASP Yes/Yes
6/24 3048 46 ASP Yes/Yes
Airport map: 
Aerial View: 

Accidents and Serious Incidents at or in the vicinity of KBHM

SKYbrary Partners:

Safety knowledge contributed by: